FW0502 Weather Reports


Display with metric or nautical units.
time (UTC)temp
F
wind
direction
speed
MPH
gust
MPH
rain 1hr
in
rain 24hr
in
rain mn
in
humidity
%
barometer
mb
20260507050042 47 1.0 3.0 0.00 0.00 0.00 51 1009.3
20260507044554 48 0.0 1.0 0.00 0.00 0.00 49 1009.1
20260507043041 49 1.0 4.0 0.00 0.00 0.00 47 1008.8
20260507041540 50 1.0 6.0 0.00 0.00 0.00 46 1008.8
20260507040040 51 4.0 7.0 0.00 0.00 0.00 45 1008.8
20260507034543 53 3.0 9.0 0.00 0.00 0.00 43 1008.5
20260507033038 54 5.0 9.0 0.00 0.00 0.00 41 1008.6
20260507031538 56 4.0 7.0 0.00 0.00 0.00 39 1008.0
20260507030038 57 4.0 9.0 0.00 0.00 0.00 37 1007.9
20260507024541 58 5.0 10.0 0.00 0.00 0.00 36 1007.6
20260507023036 60 5.0 8.0 0.00 0.00 0.00 34 1007.3
20260507021536 61 5.0 11.0 0.00 0.00 0.00 33 1007.3
20260507020045 62 5.0 10.0 0.00 0.00 0.00 32 1007.0
20260507014537 63 5.0 14.0 0.00 0.00 0.00 30 1006.7
20260507013035 65 5.0 9.0 0.00 0.00 0.00 28 1006.2
20260507011534 68 3.0 7.0 0.00 0.00 0.00 25 1006.0
20260507010034 70 4.0 9.0 0.00 0.00 0.00 23 1006.1
20260507004533 69 4.0 9.0 0.00 0.00 0.00 24 1006.2
20260507003032 69 2.0 7.0 0.00 0.00 0.00 24 1006.4
20260507001535 69 4.0 8.0 0.00 0.00 0.00 23 1006.5
20260507000026 70 2.0 7.0 0.00 0.00 0.00 23 1006.5
20260506234525 72 4.0 10.0 0.00 0.00 0.00 21 1006.5
20260506233022 73 4.0 11.0 0.00 0.00 0.00 20 1006.6
20260506231519 73 6.0 9.0 0.00 0.00 0.00 20 1006.8
20260506230017 72 3.0 9.0 0.00 0.00 0.00 21 1006.9
20260506224516 73 5.0 11.0 0.00 0.00 0.00 20 1007.1
20260506223014 73 5.0 10.0 0.00 0.00 0.00 19 1007.3
20260506221511 71 3.0 8.0 0.00 0.00 0.00 21 1007.6
20260506220010 71 4.0 8.0 0.00 0.00 0.00 21 1007.8
20260506214508 71 2.0 8.0 0.00 0.00 0.00 20 1008.0
20260506213010 73 1.0 12.0 0.00 0.00 0.00 19 1008.2
20260506211503 72 7.0 14.0 0.00 0.00 0.00 20 1008.4
20260506210001 71 3.0 9.0 0.00 0.00 0.00 20 1008.6
20260506204624 71 4.0 13.0 0.00 0.00 0.00 20 1008.8
20260506203056 71 2.0 9.0 0.00 0.00 0.00 20 1009.0
20260506201553 70 5.0 15.0 0.00 0.00 0.00 20 1009.3
20260506200052 70 8.0 15.0 0.00 0.00 0.00 20 1009.6
20260506194601 70 1.0 10.0 0.00 0.00 0.00 22 1009.8
20260506193049 69 1.0 9.0 0.00 0.00 0.00 20 1010.1
20260506191543 68 0.0 7.0 0.00 0.00 0.00 22 1010.3
20260506190043 67 3.0 6.0 0.00 0.00 0.00 24 1010.6
20260506184537 65 0.0 7.0 0.00 0.00 0.00 24 1010.7
20260506183034 65 2.0 8.0 0.00 0.00 0.00 32 1011.0
20260506181534 63 4.0 9.0 0.00 0.00 0.00 34 1011.5
20260506180029 62 3.0 8.0 0.00 0.00 0.00 33 1011.6
20260506174523 60 3.0 8.0 0.00 0.00 0.00 34 1012.0
20260506173018 59 2.0 7.0 0.00 0.00 0.00 35 1012.3
20260506171515 58 3.0 8.0 0.00 0.00 0.00 38 1012.5
20260506170015 56 3.0 8.0 0.00 0.00 0.00 39 1012.9
20260506164508 55 2.0 8.0 0.00 0.00 0.00 41 1013.0
20260506163003 53 2.0 7.0 0.00 0.00 0.00 42 1013.0
20260506161607 52 2.0 5.0 0.00 0.00 0.00 45 1013.3
20260506160055 51 1.0 6.0 0.00 0.00 0.00 46 1013.5
20260506154608 49 3.0 7.0 0.00 0.00 0.00 47 1013.7
20260506153046 48 3.0 8.0 0.00 0.00 0.00 50 1014.0
20260506151542 46 4.0 9.0 0.00 0.00 0.00 51 1014.1
20260506150039 45 3.0 6.0 0.00 0.00 0.00 53 1014.3
20260506144537 43 2.0 6.0 0.00 0.00 0.00 57 1014.7
20260506143032 42 3.0 6.0 0.00 0.00 0.00 58 1014.8
20260506141526 39 3.0 6.0 0.00 0.00 0.00 63 1015.0
20260506140027 37 2.0 3.0 0.00 0.00 0.00 66 1015.0
20260506134518 36 1.0 5.0 0.00 0.00 0.00 68 1015.4
20260506133033 34 2.0 4.0 0.00 0.00 0.00 71 1015.5
20260506131515 32 1.0 2.0 0.00 0.00 0.00 71 1015.4
20260506130009 30 1.0 4.0 0.00 0.00 0.00 71 1015.5
20260506124502 30 0.0 0.0 0.00 0.00 0.00 70 1015.7
20260506123003 26 0.0 0.0 0.00 0.00 0.00 76 1015.8
20260506121559 26 0.0 2.0 0.00 0.00 0.00 75 1015.9
20260506120059 27 0.0 0.0 0.00 0.00 0.00 72 1016.0
20260506114602 26 0.0 0.0 0.00 0.00 0.00 72 1016.2
20260506113100 26 0.0 0.0 0.00 0.00 0.00 72 1016.2
20260506111604 25 0.0 0.0 0.00 0.00 0.00 73 1016.6
20260506110053 26 0.0 0.0 0.00 0.00 0.00 73 1016.7
20260506104556 25 0.0 0.0 0.00 0.00 0.00 72 1016.9
20260506103056 26 0.0 0.0 0.00 0.00 0.00 71 1017.1
20260506101550 26 0.0 0.0 0.00 0.00 0.00 70 1017.3
20260506100042 26 0.0 0.0 0.00 0.00 0.00 70 1017.5
20260506094541 27 0.0 0.0 0.00 0.00 0.00 69 1017.7
20260506093039 26 0.0 0.0 0.00 0.00 0.00 69 1018.0
20260506091537 27 0.0 0.0 0.00 0.00 0.00 69 1018.2
20260506090134 27 0.0 0.0 0.00 0.00 0.00 67 1018.3
20260506084539 28 0.0 1.0 0.00 0.00 0.00 68 1018.5
20260506083033 28 0.0 0.0 0.00 0.00 0.00 68 1018.7
20260506081530 28 0.0 0.0 0.00 0.00 0.00 67 1018.9
20260506073025 27 0.0 1.0 0.00 0.00 0.00 68 1019.4
20260506071523 26 0.0 0.0 0.00 0.00 0.00 67 1019.5
20260506061514 28 0.0 0.0 0.00 0.00 0.00 62 1019.9